This demonstration page uses our WeatherBlox Daily Observations layout. Learn more.

Left ArrowRight Arrow

Hourly Observations for June 27, 2021

Temp ( °F °C ) Dew Point ( °F °C ) Humidity (%) Winds ( mph kmh ) Pressure ( in mb ) Visibility ( mi km ) Precip ( " mm )
12:56 am 00:56 Clear 64 17.8 59 15 84 84 Calm 29.95 1014 10 16 0.00 0.00
1:56 am 01:56 Clear 61 16.1 58 14.4 90 90 Calm 29.95 1014 10 16 0.00 0.00
2:56 am 02:56 Mostly Clear 60 15.6 57 13.9 90 90 NW 6 9 29.94 1014 10 16 0.00 0.00
3:56 am 03:56 Clear 60 15.6 58 14.4 93 93 W 6 9 29.95 1014 9 14 0.00 0.00
4:56 am 04:56 Clear 61 16.1 57 13.9 87 87 Calm 29.94 1014 9 14 0.00 0.00
5:56 am 05:56 Clear with Mist and Fog 55 12.8 54 12.2 96 96 SE 3 6 29.96 1015 4 6 0.00 0.00
6:56 am 06:56 Sunny with Mist and Fog 57 13.9 55 12.8 93 93 N 6 9 29.99 1016 4 6 0.00 0.00
7:56 am 07:56 Sunny with Mist and Fog 62 16.7 59 15 90 90 N 3 6 29.99 1016 4 6 0.00 0.00
8:56 am 08:56 Sunny 66 18.9 61 16.1 84 84 ENE 3 6 29.99 1016 10 16 0.00 0.00
9:56 am 09:56 Sunny 71 21.7 62 16.7 73 73 E 5 7 30.00 1016 10 16 0.00 0.00
10:56 am 10:56 Sunny 73 22.8 62 16.7 69 69 Calm 29.99 1016 10 16 0.00 0.00
11:56 am 11:56 Sunny 77 25 60 15.6 56 56 S 5 7 29.99 1016 10 16 0.00 0.00
12:52 pm 12:52 Mostly Cloudy with Nearby Thunderstorms 77 25 57 14 51 51 Calm 29.92 1013 10 16 0.00 0.00
12:56 pm 12:56 Cloudy with Nearby Thunderstorms 78 25.6 57 13.9 48 48 Calm 29.98 1015 10 16 0.00 0.00
1:07 pm 13:07 Mostly Cloudy 79 26 57 14 48 48 Calm 29.91 1013 10 16 0.00 0.00
1:56 pm 13:56 Cloudy with Light Rain 70 21.1 56 13.3 61 61 W 15 24 30.00 1016 10 16 0.00 0.00
2:56 pm 14:56 Mostly Cloudy with Light Rain 75 23.9 63 17.2 66 66 NNE 12 19 29.99 1016 10 16 0.00 0.00
3:48 pm 15:48 Mostly Cloudy with Nearby Thunderstorms 73 23 59 15 61 61 NNW 13 20 29.94 1014 10 16 0.00 0.00
3:56 pm 15:56 Mostly Cloudy with Nearby Thunderstorms 72 22.2 59 15 64 64 NNW 16 26 30.01 1016 10 16 0.00 0.00
4:03 pm 16:03 Cloudy with Light Rain 72 22 57 14 61 61 N 16 26 29.95 1014 10 16 0.00 0.00
4:56 pm 16:56 Mostly Cloudy 76 24.4 58 14.4 54 54 ENE 5 7 29.98 1015 10 16 0.00 0.00
5:56 pm 17:56 Sunny 78 25.6 57 13.9 48 48 E 5 7 29.97 1015 10 16 0.00 0.00
6:56 pm 18:56 Sunny 77 25 58 14.4 52 52 E 8 13 29.97 1015 10 16 0.00 0.00
7:56 pm 19:56 Sunny 75 23.9 60 15.6 60 60 E 8 13 29.98 1015 10 16 0.00 0.00
8:44 pm 20:44 Hazy 72 22 63 17 73 73 SE 7 11 29.94 1014 2 3 0.00 0.00
8:56 pm 20:56 Hazy 71 21.7 63 17.2 76 76 ESE 3 6 29.99 1016 3 5 0.00 0.00
9:28 pm 21:28 Hazy 70 21 63 17 78 78 SE 7 11 29.96 1015 2 3 0.00 0.00
9:47 pm 21:47 Hazy 68 20 63 17 83 83 SE 7 11 29.97 1015 3 4 0.00 0.00
9:56 pm 21:56 Mostly Clear 68 20 62 16.7 81 81 SE 8 13 30.00 1016 7 11 0.00 0.00
10:56 pm 22:56 Clear 67 19.4 62 16.7 84 84 Calm 30.02 1017 10 16 0.00 0.00
11:56 pm 23:56 Clear with Mist and Fog 65 18.3 61 16.1 87 87 Calm 30.02 1017 6 10 0.00 0.00

Powered by AerisWeather